Weather History for Topeka, KS

Change the Weather History Date:

Thursday, May 2, 2013

  Actual Average Record
Temperature  
Mean Temperature 39 °F 61 °F  
Max Temperature 43 °F 72 °F 89 °F (1952)
Min Temperature 35 °F 50 °F 29 °F (1961)
Degree Days  
Heating Degree Days 26 6  
Month to date heating degree days 33 12  
Since 1 July heating degree days 4796 4929  
Cooling Degree Days 0 1  
Month to date cooling degree days 0 2  
Year to date cooling degree days 16 30  
Moisture  
Dew Point 33 °F    
Average Humidity 75    
Maximum Humidity 92    
Minimum Humidity 57    
Precipitation  
Precipitation 0.82 in 0.15 in 2.14 in (1892)
Month to date precipitation 0.86 0.30  
Year to date precipitation 8.43 8.50  
Snow  
Snow T in 0.00 in T in (1942)
Month to date snowfall T 0.0  
Year to date snowfall 24.2 11.3  
Since 1 July snowfall 29.6 17.8  
Snow Depth 0.00 in    
Sea Level Pressure  
Sea Level Pressure 30.41 in    
Wind  
Wind Speed 14 mph (North)    
Max Wind Speed 28 mph    
Max Gust Speed 38 mph    
Visibility 6 miles    
Events Rain , Snow    
T = Trace of Precipitation, MM = Missing Value Source: NWS Daily Summary

Daily Weather History Graph

Daily Weather History Graph

Search for Another Location

Airport:

Trip Planner

Search our weather history database for the weather conditions in past years. The results will help you decide how hot, cold, wet, or windy it might be!

Date:

Astronomy

May. 02, 2013 Rise Set
Actual Time 6:22 AM CDT 8:16 PM CDT
Civil Twilight 5:53 AM CDT 8:45 PM CDT
Nautical Twilight 5:18 AM CDT 9:21 PM CDT
Astronomical Twilight 4:40 AM CDT 9:59 PM CDT
Moon 2:07 AM CDT (5/2) 1:10 PM CDT (5/2)
Length of Visible Light 14h 51m
Length of Day
13h 53m
Waning Gibbous, 47% of the Moon is Illuminated
May 2
Waning Gibbous
May 9
New
May 17
First Quarter
May 24
Full
May 31
Last Quarter

Hourly Weather History & Observations

Time (CDT) Temp. Windchill Dew Point Humidity Pressure Visibility Wind Dir Wind Speed Gust Speed Precip Events Conditions
12:53 AM 42.1 °F 33.3 °F 37.0 °F 82% 30.28 in 10.0 mi NNE 19.6 mph 26.5 mph N/A   Overcast
1:53 AM 42.1 °F 34.2 °F 37.0 °F 82% 30.28 in 4.0 mi North 16.1 mph 31.1 mph 0.04 in Rain Rain
2:13 AM 42.1 °F 33.3 °F 37.0 °F 82% 30.29 in 10.0 mi North 19.6 mph 27.6 mph 0.01 in Rain Light Rain
2:23 AM 42.1 °F 35.2 °F 37.0 °F 82% 30.31 in 10.0 mi North 12.7 mph 21.9 mph 0.02 in Rain Light Rain
2:53 AM 41.0 °F 33.5 °F 37.0 °F 86% 30.29 in 5.0 mi North 13.8 mph 26.5 mph 0.05 in Rain Light Rain
3:53 AM 41.0 °F 33.5 °F 37.0 °F 86% 30.30 in 7.0 mi North 13.8 mph 29.9 mph 0.02 in Rain Light Rain
4:53 AM 39.9 °F 31.8 °F 37.0 °F 89% 30.30 in 6.0 mi NNE 15.0 mph 26.5 mph 0.14 in Rain Rain
5:37 AM 39.9 °F 32.5 °F 37.0 °F 89% 30.34 in 5.0 mi NNW 12.7 mph - 0.08 in Rain Rain
5:53 AM 39.0 °F 30.3 °F 36.0 °F 89% 30.36 in 4.0 mi NNW 16.1 mph 21.9 mph 0.12 in Rain Rain
6:49 AM 37.4 °F 28.2 °F 33.8 °F 87% 30.37 in 10.0 mi NNW 16.1 mph 29.9 mph 0.06 in   Overcast
6:53 AM 37.9 °F 28.2 °F 35.1 °F 89% 30.38 in 10.0 mi North 18.4 mph 25.3 mph 0.06 in   Overcast
7:24 AM 37.9 °F 29.6 °F 34.0 °F 86% 30.40 in 10.0 mi NNW 13.8 mph 27.6 mph 0.00 in Rain Light Rain
7:44 AM 39.0 °F 28.5 °F 34.0 °F 82% 30.39 in 10.0 mi North 23.0 mph 31.1 mph 0.00 in Rain Light Rain
7:53 AM 37.9 °F 28.2 °F 34.0 °F 86% 30.42 in 9.0 mi North 18.4 mph 29.9 mph 0.00 in Rain Light Rain
8:36 AM 37.9 °F 28.9 °F 34.0 °F 86% 30.45 in 5.0 mi North 16.1 mph 29.9 mph 0.02 in Rain Light Rain
8:43 AM 37.9 °F 27.3 °F 34.0 °F 86% 30.43 in 3.0 mi North 21.9 mph 31.1 mph 0.04 in Rain Rain
8:50 AM 37.4 °F 26.4 °F 33.8 °F 87% 30.44 in 2.5 mi North 23.0 mph 36.8 mph 0.06 in Rain Rain
8:53 AM 37.4 °F 27.8 °F 33.8 °F 87% 30.44 in 2.5 mi North 17.3 mph 36.8 mph N/A Rain Rain
9:09 AM 36.0 °F 26.0 °F 33.1 °F 89% 30.45 in 3.0 mi North 17.3 mph 31.1 mph 0.05 in Rain Rain
9:49 AM 35.6 °F 25.5 °F 32.0 °F 87% 30.44 in 2.0 mi North 17.3 mph 29.9 mph 0.11 in Snow Light Snow
9:51 AM 35.6 °F 25.5 °F 32.0 °F 87% 30.44 in 2.0 mi NNW 17.3 mph 29.9 mph 0.11 in Snow Light Snow
9:53 AM 35.1 °F 24.1 °F 32.0 °F 89% 30.46 in 2.0 mi North 19.6 mph 28.8 mph 0.12 in Snow Light Snow
10:12 AM 35.1 °F 25.5 °F 32.0 °F 89% 30.44 in 4.0 mi NNW 15.0 mph 28.8 mph 0.00 in Snow Light Snow
10:27 AM 35.1 °F 24.5 °F 32.0 °F 89% 30.44 in 2.0 mi North 18.4 mph 27.6 mph 0.02 in Snow Light Snow
10:53 AM 35.1 °F 25.5 °F 32.0 °F 89% 30.47 in 1.5 mi NNW 15.0 mph - 0.04 in Snow Light Snow
11:14 AM 35.1 °F 26.4 °F 32.0 °F 89% 30.45 in 3.0 mi NNW 12.7 mph - 0.03 in Snow Light Snow
11:45 AM 36.0 °F 26.0 °F 33.1 °F 89% 30.46 in 2.0 mi North 17.3 mph 29.9 mph 0.05 in Snow Light Snow
11:53 AM 36.0 °F 25.0 °F 32.0 °F 86% 30.48 in 1.8 mi North 20.7 mph 34.5 mph 0.06 in Snow Light Snow
12:39 PM 36.0 °F 26.7 °F 33.1 °F 89% 30.45 in 3.0 mi North 15.0 mph 23.0 mph 0.04 in Snow Light Snow
12:53 PM 36.0 °F 27.1 °F 34.0 °F 93% 30.46 in 4.0 mi North 13.8 mph 20.7 mph 0.05 in Snow Light Snow
1:42 PM 37.9 °F 26.8 °F 33.1 °F 83% 30.46 in 6.0 mi North 24.2 mph 33.4 mph 0.01 in Snow Light Snow
1:49 PM 37.4 °F 28.2 °F 33.8 °F 87% 30.45 in 4.0 mi North 16.1 mph 33.4 mph 0.01 in Snow Light Snow
1:53 PM 37.0 °F 27.4 °F 34.0 °F 89% 30.47 in 5.0 mi North 17.3 mph 27.6 mph 0.02 in Snow Light Snow
2:31 PM 37.9 °F 27.1 °F 33.1 °F 83% 30.46 in 5.0 mi North 23.0 mph 33.4 mph 0.01 in Snow Light Snow
2:53 PM 37.9 °F 28.9 °F 33.1 °F 83% 30.48 in 4.0 mi NNW 16.1 mph 24.2 mph 0.02 in Snow Light Snow
3:23 PM 37.9 °F 30.5 °F 33.1 °F 83% 30.45 in 10.0 mi North 11.5 mph 25.3 mph 0.00 in Rain Light Rain
3:39 PM 37.9 °F 29.6 °F 33.1 °F 83% 30.45 in 10.0 mi North 13.8 mph - 0.01 in Rain Light Rain
3:53 PM 39.0 °F 30.6 °F 32.0 °F 76% 30.46 in 10.0 mi North 15.0 mph 26.5 mph 0.01 in Rain Light Rain
4:28 PM 39.9 °F 31.8 °F 30.0 °F 68% 30.44 in 10.0 mi North 15.0 mph 32.2 mph 0.00 in   Overcast
4:53 PM 41.0 °F 31.9 °F 28.9 °F 62% 30.45 in 10.0 mi North 19.6 mph 34.5 mph 0.00 in   Overcast
5:53 PM 42.1 °F 34.2 °F 28.9 °F 60% 30.44 in 10.0 mi North 16.1 mph 21.9 mph N/A   Overcast
6:53 PM 41.0 °F 33.5 °F 28.0 °F 60% 30.44 in 10.0 mi North 13.8 mph - N/A   Overcast
7:53 PM 41.0 °F 35.2 °F 28.9 °F 62% 30.43 in 10.0 mi NNW 9.2 mph - N/A   Overcast
8:53 PM 41.0 °F 36.4 °F 30.9 °F 67% 30.43 in 10.0 mi North 6.9 mph - N/A   Overcast
9:53 PM 41.0 °F 37.1 °F 32.0 °F 70% 30.42 in 10.0 mi NNW 5.8 mph - N/A   Overcast
10:53 PM 41.0 °F 36.4 °F 33.1 °F 73% 30.40 in 10.0 mi NW 6.9 mph - N/A   Overcast
11:53 PM 41.0 °F 35.8 °F 33.1 °F 73% 30.37 in 10.0 mi NW 8.1 mph - N/A   Overcast